Quincy, IL

1:13 AM CST on December 17, 2017 (GMT -0600)
Quincy Regional-Baldwin

Weather History for KUIN - December, 2012

Change the Weather History Date:

Wednesday, December 19, 2012

  Actual Average Record
Temperature  
Mean Temperature 36 °F 29 °F  
Max Temperature 42 °F 36 °F 60 °F (1988)
Min Temperature 30 °F 21 °F -16 °F (1901)
Degree Days  
Heating Degree Days 29 36  
Month to date heating degree days 433 640  
Since 1 July heating degree days 1578 1740  
Cooling Degree Days 0 0  
Month to date cooling degree days 0 0  
Year to date cooling degree days 1575 1094  
Moisture  
Dew Point 33 °F    
Average Humidity 84    
Maximum Humidity 92    
Minimum Humidity 76    
Precipitation  
Precipitation 0.13 in 0.07 in 1.50 in (1987)
Month to date precipitation 1.00 1.51  
Year to date precipitation 25.26 36.59  
Sea Level Pressure  
Sea Level Pressure 29.83 in    
Wind  
Wind Speed 9 mph (East)    
Max Wind Speed 23 mph    
Max Gust Speed 30 mph    
Visibility 5 miles    
Events Rain , Thunderstorm    
T = Trace of Precipitation, MM = Missing Value Source: NWS Daily Summary

Daily Weather History Graph

Daily Weather History Graph

Search for Another Location

Airport or City:

Trip Planner

Search our weather history database for the weather conditions in past years. The results will help you decide how hot, cold, wet, or windy it might be!

Date:

Astronomy

Dec. 19, 2012 Rise Set
Actual Time 7:22 AM CST 4:42 PM CST
Civil Twilight 6:51 AM CST 5:12 PM CST
Nautical Twilight 6:17 AM CST 5:46 PM CST
Astronomical Twilight 5:44 AM CST 6:19 PM CST
Moon 11:31 AM CST (12/19) No Moon Set
Length of Visible Light 10h 21m
Length of Day
9h 20m
Waxing Crescent, 45% of the Moon is Illuminated
Dec 19
Waxing Crescent
Dec 19
First Quarter
Dec 28
Full
Jan 4
Last Quarter
Jan 11
New

Hourly Weather History & Observations

Time (CST) Temp. Windchill Dew Point Humidity Pressure Visibility Wind Dir Wind Speed Gust Speed Precip Events Conditions
12:54 AM 32.0 °F 28.7 °F 28.9 °F 88% 29.92 in 7.0 mi NNE 3.5 mph - N/A   Clear
1:54 AM 32.0 °F 28.7 °F 28.9 °F 88% 29.94 in 6.0 mi ENE 3.5 mph - N/A   Scattered Clouds
2:08 AM 32.0 °F - 28.4 °F 87% 29.94 in 6.0 mi Calm Calm - N/A   Mostly Cloudy
2:54 AM 30.9 °F - 28.0 °F 89% 29.97 in 6.0 mi Calm Calm - N/A   Overcast
3:54 AM 30.9 °F 27.5 °F 28.0 °F 89% 29.97 in 6.0 mi SSE 3.5 mph - N/A   Overcast
4:12 AM 30.2 °F 26.7 °F 28.4 °F 93% 29.96 in 5.0 mi SSE 3.5 mph - N/A   Scattered Clouds
4:54 AM 30.9 °F - 28.0 °F 89% 29.98 in 5.0 mi Calm Calm - N/A   Clear
5:54 AM 30.9 °F 27.5 °F 28.0 °F 89% 29.98 in 6.0 mi ENE 3.5 mph - N/A   Clear
6:54 AM 32.0 °F 24.2 °F 28.9 °F 88% 29.97 in 6.0 mi ENE 9.2 mph - N/A   Clear
7:54 AM 33.1 °F 26.9 °F 30.0 °F 89% 30.00 in 5.0 mi East 6.9 mph - N/A   Clear
8:54 AM 33.1 °F 28.7 °F 30.0 °F 89% 30.01 in 5.0 mi East 4.6 mph - N/A   Partly Cloudy
9:54 AM 35.1 °F 29.3 °F 30.9 °F 85% 30.01 in 5.0 mi East 6.9 mph - N/A   Overcast
10:54 AM 36.0 °F 27.5 °F 30.9 °F 82% 29.98 in 6.0 mi East 12.7 mph - N/A   Haze
11:54 AM 37.0 °F 29.8 °F 30.9 °F 79% 29.96 in 7.0 mi ESE 10.4 mph - N/A   Overcast
12:54 PM 37.9 °F 32.1 °F 30.9 °F 76% 29.96 in 8.0 mi SE 8.1 mph - N/A   Overcast
1:54 PM 37.0 °F 29.8 °F 32.0 °F 82% 29.91 in 5.0 mi East 10.4 mph - 0.00 in Rain Light Rain
2:54 PM 37.0 °F 28.9 °F 33.1 °F 86% 29.87 in 5.0 mi East 12.7 mph - 0.00 in   Mostly Cloudy
3:09 PM 37.4 °F 28.5 °F 33.8 °F 87% 29.84 in 5.0 mi East 15.0 mph 23.0 mph N/A   Mostly Cloudy
3:54 PM 37.0 °F 28.5 °F 34.0 °F 89% 29.85 in 5.0 mi East 13.8 mph - N/A   Overcast
4:54 PM 37.0 °F 28.1 °F 34.0 °F 89% 29.81 in 6.0 mi East 15.0 mph - N/A   Overcast
5:16 PM 37.4 °F 28.9 °F 33.8 °F 87% 29.80 in 6.0 mi East 13.8 mph - N/A   Overcast
5:54 PM 37.9 °F 30.5 °F 34.0 °F 86% 29.82 in 6.0 mi East 11.5 mph - N/A   Overcast
6:03 PM 37.4 °F 29.3 °F 33.8 °F 87% 29.80 in 6.0 mi East 12.7 mph 20.7 mph N/A   Overcast
6:26 PM 37.4 °F 29.8 °F 35.6 °F 93% 29.79 in 2.5 mi East 11.5 mph - 0.00 in Rain Light Rain
6:35 PM 37.4 °F 28.9 °F 35.6 °F 93% 29.77 in 2.5 mi East 13.8 mph 21.9 mph 0.00 in Rain Light Rain
6:54 PM 37.9 °F 30.0 °F 35.1 °F 89% 29.77 in 2.5 mi East 12.7 mph - 0.00 in Rain Light Rain
7:36 PM 37.4 °F 26.9 °F 35.6 °F 93% 29.72 in 3.0 mi ESE 20.7 mph 27.6 mph 0.00 in   Overcast
7:54 PM 37.9 °F 29.2 °F 36.0 °F 93% 29.72 in 3.0 mi ESE 15.0 mph 24.2 mph 0.00 in   Overcast
8:54 PM 39.0 °F 29.9 °F 37.0 °F 93% 29.68 in 4.0 mi ESE 17.3 mph - N/A   Overcast
9:38 PM 39.2 °F 30.5 °F 37.4 °F 93% 29.61 in 4.0 mi ESE 16.1 mph 26.5 mph 0.01 in Rain , Thunderstorm Light Rain
9:49 PM 39.2 °F 30.2 °F 37.4 °F 93% 29.59 in 2.0 mi ESE 17.3 mph 24.2 mph 0.13 in Rain , Thunderstorm Heavy Thunderstorms and Rain
9:54 PM 39.9 °F 31.4 °F 37.9 °F 93% 29.60 in 3.0 mi ESE 16.1 mph 24.2 mph 0.13 in Rain , Thunderstorm Light Thunderstorms and Rain
10:07 PM 41.0 °F 32.5 °F 37.4 °F 87% 29.57 in 6.0 mi ESE 17.3 mph 24.2 mph 0.00 in Rain Light Rain
10:54 PM 41.0 °F 33.9 °F 39.9 °F 96% 29.55 in 4.0 mi ESE 12.7 mph - 0.00 in Rain Light Rain
11:54 PM 42.8 °F 36.2 °F 41.0 °F 93% 29.49 in 4.0 mi SE 12.7 mph - N/A   Overcast